Regional Weather Roundup
Issued by NWS

Home | Current Version | Previous Version | Text Only | Print | Product List | Glossary Off
Versions: 1 2 3 4 5 6 7 8 9 10 11 12 13 14 15 16 17 18 19 20 21 22 23 24 25 26 27 28 29 30 31 32 33 34 35 36 37 38 39 40 41 42 43 44 45 46 47 48 49 50

612
ASUS43 KDTX 221910
RWRMI
MICHIGAN HOURLY REGIONAL WEATHER ROUNDUP
NATIONAL WEATHER SERVICE DETROIT/PONTIAC MI
300 PM EDT WED MAR 22 2017

NOTE: "FAIR" INDICATES FEW OR NO CLOUDS BELOW 12,000 FEET WITH NO
SIGNIFICANT WEATHER AND/OR OBSTRUCTION TO VISIBILITY.

MIZ047>049-052>055-059>063-066>070-074>076-081>083-222000-
SOUTHEAST LOWER MICHIGAN

CITY           SKY/WX    TMP DP  RH WIND       PRES   REMARKS
ADRIAN         SUNNY     33  14  45 NE7       30.55F WCI  27
ALMA           SUNNY     30   4  32 SE5       30.58F WCI  25
ANN ARBOR      SUNNY     34   9  35 NW6       30.53F WCI  29
BAD AXE        SUNNY     25   9  49 NE10      30.58S WCI  15
CARO           SUNNY     29  11  47 N6        30.57S WCI  23
DETROIT CITY   SUNNY     34   9  35 N10G17    30.56F WCI  26
DETROIT        SUNNY     36   8  31 NE3       30.56F
FLINT          SUNNY     31   9  39 E8        30.56F WCI  23
GROSSE ILE     SUNNY     32  11  41 NE8       30.55F WCI  25
HILLSDALE      SUNNY     32  12  43 E3        30.52S
HOWELL         SUNNY     32   6  34 N6        30.54F WCI  26

CITY           SKY/WX    TMP DP  RH WIND       PRES   REMARKS
JACKSON        SUNNY     35   6  29 E7        30.54F WCI  29
LAMBERTVILLE   SUNNY     34  16  46 E3        30.55F
LANSING        SUNNY     33   2  26 VRB6      30.56F WCI  28
LAPEER         FAIR      31   9  40 N6        30.55F WCI  25
MASON          SUNNY     31  10  40 CALM      30.55F
MONROE         SUNNY     34  18  52 E8        30.55F WCI  27
MT. CLEMENS    MOSUNNY   31  12  44 N12       30.54F WCI  22
PONTIAC        SUNNY     31   7  36 VRB5      30.52F WCI  26
PORT HOPE        N/A     25  13  60 N8        30.58F WCI  16
PORT HURON     MOSUNNY   28  12  50 N12       30.57F WCI  18
TRI CITIES     SUNNY     28   9  44 VRB3      30.59F
MIDLAND        FAIR      32   3  29 NE3       30.57F
TROY           SUNNY     33   4  30 NE5       30.57S WCI  28
SAGINAW HB     SUNNY     30   5  34 N7        30.59S WCI  23
$$
MIZ043>046-050>051-056>058-064>065-071>073-077>080-222000-
SOUTHWEST LOWER MICHIGAN

CITY           SKY/WX    TMP DP  RH WIND       PRES   REMARKS
BATTLE CREEK   SUNNY     34   9  35 VRB6      30.55F WCI  29
BENTON HARBOR  SUNNY     32  14  47 N8        30.57F WCI  25
BIG RAPIDS     SUNNY     32   0  25 CALM      30.54F
COLDWATER      SUNNY     34   9  35 N5        30.53F WCI  29
FREMONT        FAIR      34   6  30 CALM      30.57S
HOLLAND        SUNNY     35  11  36 E6        30.57F WCI  30
GRAND RAPIDS   SUNNY     35  10  35 NW6       30.56F WCI  30
IONIA          FAIR      32   9  37 CALM      30.56F
KALAMAZOO      SUNNY     35   8  32 VRB5      30.55F WCI  31
LUDINGTON      SUNNY     30  15  52 NW9       30.59S WCI  22
MARSHALL       SUNNY     33   8  35 S3        30.54F
MOUNT PLEASANT SUNNY     31   2  29 CALM      30.56S
MUSKEGON       SUNNY     34  14  43 W8        30.59S WCI  27
SOUTH HAVEN    SUNNY     32  15  50 NW7       30.57S WCI  26
$$
MIZ016>042-222000-
NORTHERN LOWER MICHIGAN

CITY           SKY/WX    TMP DP  RH WIND       PRES   REMARKS
ALPENA         SUNNY     30   0  27 NW8       30.56F WCI  22
BEAVER ISLAND  SUNNY     28   7  41 NW9       30.59F WCI  20
BELLAIRE       SUNNY     29   8  40 NW10      30.58F WCI  20
CADILLAC       SUNNY     32  -1  24 SW6       30.51S WCI  26
CHARLEVOIX     SUNNY     24  11  57 NW8       30.64S WCI  15
FRANKFORT      SUNNY     30  14  51 NW10G16   30.60S WCI  21
GAYLORD        SUNNY     29   0  28 NW6       30.51F WCI  23
GRAYLING       SUNNY     30  -3  24 NE3       30.53F
HARBOR SPRINGS SUNNY     27   7  43 W9        30.58F WCI  18
HOUGHTON LAKE  SUNNY     28   0  29 SW10      30.53F WCI  19
MANISTEE       SUNNY     30  17  58 NW13      30.58F WCI  20
OSCODA         SUNNY     28  10  46 E10       30.56F WCI  19
PELLSTON       SUNNY     29   4  34 W9        30.57F WCI  20
ROGERS CITY    SUNNY     24   6  44 N10       30.59S WCI  14
TRAVERSE CITY  MOSUNNY   27   7  42 N8        30.59F WCI  19
$$
MIZ007>008-015-222000-
EASTERN UPPER MICHIGAN

CITY           SKY/WX    TMP DP  RH WIND       PRES   REMARKS
KINROSS        SUNNY     25   4  40 NW12      30.56F WCI  14
MACKINAC ISLAN SUNNY     24   9  53 SW9       30.57F WCI  14
NEWBERRY       SUNNY     28   8  41 NW7       30.55F WCI  21
S. S. MARIE    SUNNY     25   5  42 NW10G17   30.56F WCI  15
MUNISING         N/A     27  15  61 NE10      30.57F WCI  17
$$
MIZ004>006-011>014-085-222000-
CENTRAL UPPER MICHIGAN

CITY           SKY/WX    TMP DP  RH WIND       PRES   REMARKS
MANISTIQUE     SUNNY     27  14  59 SW12G17   30.58S WCI  16
ESCANABA       SUNNY     27  14  58 S13       30.59F WCI  16
MENOMINEE        N/A     28  13  53 SE12      30.61F WCI  18
SAWYER-GWINN   SUNNY     28   9  43 S3        30.53F
$$
MIZ001>003-009>011-084-222000-
WESTERN UPPER MICHIGAN

CITY           SKY/WX    TMP DP  RH WIND       PRES   REMARKS
IRON MOUNTAIN  SUNNY     31   3  30 E6        30.52F WCI  25
HOUGHTON       SUNNY     27   6  41 MISG      30.52F
COPPER HARBOR    N/A     25  11  55 N7        30.57F WCI  17
IRONWOOD       SUNNY     31   8  38 SW7       30.50F WCI  24
$$

ABBREVIATIONS USED IN REMARKS
   TC - TEMPERATURE IN CELSIUS
  WCI - WIND CHILL INDEX
   HX - HEAT INDEX
  VSB - VISIBILITY





USA.gov is the U.S. government's official web portal to all federal, state and local government web resources and services.